W4HSV Weather Reports


time (UTC)temp
C
wind
direction
speed
KPH
gust
KPH
rain 1hr
cm
rain 24hr
cm
rain mn
cm
humidity
%
barometer
mb
20260504222720 26 180 16.1 37.0 0.00 0.00 0.00 41 1011.5
20260504222627 26 194 12.9 37.0 0.00 0.00 0.00 41 1011.5
20260504222515 26 213 14.5 37.0 0.00 0.00 0.00 41 1011.6
20260504222423 26 303 12.9 37.0 0.00 0.00 0.00 42 1011.6
20260504222311 26 182 12.9 37.0 0.00 0.00 0.00 41 1011.6
20260504222222 26 217 14.5 37.0 0.00 0.00 0.00 40 1011.6
20260504222131 26 200 16.1 37.0 0.00 0.00 0.00 40 1011.6
20260504222102 26 224 19.3 37.0 0.00 0.00 0.00 40 1011.6
20260504221814 26 215 19.3 30.6 0.00 0.00 0.00 39 1011.6
20260504221725 26 196 17.7 30.6 0.00 0.00 0.00 39 1011.6
20260504221612 26 196 16.1 25.7 0.00 0.00 0.00 39 1011.6
20260504221519 26 182 16.1 25.7 0.00 0.00 0.00 38 1011.6
20260504221428 26 203 17.7 25.7 0.00 0.00 0.00 38 1011.6
20260504221315 26 200 14.5 27.4 0.00 0.00 0.00 39 1011.5
20260504221222 26 190 14.5 27.4 0.00 0.00 0.00 38 1011.5
20260504221113 26 216 16.1 27.4 0.00 0.00 0.00 38 1011.6
20260504221021 26 177 16.1 27.4 0.00 0.00 0.00 38 1011.6
20260504220928 26 169 16.1 30.6 0.00 0.00 0.00 39 1011.6
20260504220814 26 178 14.5 30.6 0.00 0.00 0.00 39 1011.7
20260504220722 26 174 16.1 30.6 0.00 0.00 0.00 39 1011.7
20260504220613 26 187 16.1 30.6 0.00 0.00 0.00 40 1011.7
20260504220544 26 207 14.5 30.6 0.00 0.00 0.00 40 1011.7
20260504220317 26 185 16.1 30.6 0.00 0.00 0.00 40 1011.7
20260504220245 26 171 17.7 30.6 0.00 0.00 0.00 39 1011.7
20260504220131 26 198 17.7 30.6 0.00 0.00 0.00 41 1011.6
20260504220021 26 257 19.3 30.6 0.00 0.00 0.00 41 1011.6
20260504215947 26 202 20.9 30.6 0.00 0.00 0.00 41 1011.6
20260504215813 26 189 17.7 30.6 0.00 0.00 0.00 42 1011.6
20260504215720 26 191 17.7 30.6 0.00 0.00 0.00 42 1011.6
20260504215627 26 175 12.9 30.6 0.00 0.00 0.00 42 1011.6
20260504215515 26 143 11.3 30.6 0.00 0.00 0.00 43 1011.6
20260504215427 26 187 14.5 30.6 0.00 0.00 0.00 42 1011.6
20260504215314 26 207 17.7 30.6 0.00 0.00 0.00 42 1011.6
20260504215220 26 198 17.7 30.6 0.00 0.00 0.00 43 1011.6
20260504215127 26 188 17.7 29.0 0.00 0.00 0.00 42 1011.7
20260504215057 26 180 19.3 29.0 0.00 0.00 0.00 42 1011.6
20260504214834 26 166 14.5 29.0 0.00 0.00 0.00 43 1011.7
20260504214719 26 250 9.7 22.5 0.00 0.00 0.00 43 1011.6
20260504214647 26 180 9.7 22.5 0.00 0.00 0.00 43 1011.6
20260504214514 26 137 11.3 25.7 0.00 0.00 0.00 42 1011.6
20260504214422 26 220 11.3 25.7 0.00 0.00 0.00 42 1011.6
20260504214310 25 209 11.3 25.7 0.00 0.00 0.00 42 1011.7
20260504214242 26 236 12.9 25.7 0.00 0.00 0.00 42 1011.7
20260504214128 26 264 14.5 25.7 0.00 0.00 0.00 43 1011.7
20260504214016 26 201 11.3 25.7 0.00 0.00 0.00 43 1011.7
20260504213923 25 219 12.9 25.7 0.00 0.00 0.00 43 1011.7
20260504213811 25 171 14.5 25.7 0.00 0.00 0.00 42 1011.6
20260504213718 25 203 12.9 25.7 0.00 0.00 0.00 41 1011.7
20260504213629 25 244 11.3 27.4 0.00 0.00 0.00 41 1011.7
20260504213559 25 227 12.9 27.4 0.00 0.00 0.00 42 1011.7
20260504213313 25 177 16.1 27.4 0.00 0.00 0.00 41 1011.6
20260504213221 25 182 16.1 27.4 0.00 0.00 0.00 42 1011.6
20260504213112 26 177 14.5 27.4 0.00 0.00 0.00 42 1011.6
20260504213019 26 158 14.5 27.4 0.00 0.00 0.00 43 1011.6
20260504212947 26 207 16.1 27.4 0.00 0.00 0.00 43 1011.6
20260504212833 26 197 16.1 27.4 0.00 0.00 0.00 43 1011.7
20260504212721 26 194 19.3 27.4 0.00 0.00 0.00 43 1011.7
20260504212609 26 174 20.9 27.4 0.00 0.00 0.00 44 1011.7
20260504212517 26 202 17.7 25.7 0.00 0.00 0.00 44 1011.7
20260504212449 26 183 16.1 25.7 0.00 0.00 0.00 44 1011.7
20260504212314 26 169 12.9 25.7 0.00 0.00 0.00 43 1011.5
20260504212242 26 184 12.9 25.7 0.00 0.00 0.00 43 1011.5
20260504212128 26 175 14.5 25.7 0.00 0.00 0.00 44 1011.6
20260504212058 26 189 14.5 25.7 0.00 0.00 0.00 44 1011.5
20260504211835 26 202 12.9 24.1 0.00 0.00 0.00 43 1011.6
20260504211723 26 193 11.3 29.0 0.00 0.00 0.00 43 1011.6
20260504211609 26 248 8.0 29.0 0.00 0.00 0.00 44 1011.5
20260504211516 26 238 9.7 29.0 0.00 0.00 0.00 43 1011.6
20260504211423 26 192 9.7 32.2 0.00 0.00 0.00 43 1011.6
20260504211310 26 286 9.7 32.2 0.00 0.00 0.00 43 1011.7
20260504211222 26 191 9.7 32.2 0.00 0.00 0.00 41 1011.7
20260504211110 26 206 11.3 32.2 0.00 0.00 0.00 41 1011.7
20260504211017 26 175 16.1 32.2 0.00 0.00 0.00 41 1011.7
20260504210924 26 183 16.1 32.2 0.00 0.00 0.00 39 1011.7
20260504210812 26 226 14.5 32.2 0.00 0.00 0.00 39 1011.7
20260504210740 26 241 16.1 32.2 0.00 0.00 0.00 39 1011.7
20260504210630 26 228 17.7 32.2 0.00 0.00 0.00 40 1011.7
20260504210600 26 211 16.1 27.4 0.00 0.00 0.00 40 1011.7
20260504210313 26 183 12.9 33.8 0.00 0.00 0.00 40 1011.8
20260504210221 26 197 12.9 33.8 0.00 0.00 0.00 42 1011.8
20260504210113 26 194 14.5 33.8 0.00 0.00 0.00 41 1011.7
20260504210040 26 193 16.1 33.8 0.00 0.00 0.00 42 1011.7
20260504205928 26 126 14.5 33.8 0.00 0.00 0.00 41 1011.7
20260504205835 26 194 14.5 33.8 0.00 0.00 0.00 43 1011.7
20260504205722 26 212 19.3 33.8 0.00 0.00 0.00 43 1011.7
20260504205609 26 163 22.5 33.8 0.00 0.00 0.00 44 1011.8
20260504205515 26 167 19.3 30.6 0.00 0.00 0.00 44 1011.8
20260504205427 26 180 16.1 35.4 0.00 0.00 0.00 46 1011.8
20260504205314 26 157 9.7 24.1 0.00 0.00 0.00 48 1011.8
20260504205220 26 178 11.3 24.1 0.00 0.00 0.00 46 1011.8
20260504205147 26 194 11.3 27.4 0.00 0.00 0.00 46 1011.8
20260504205056 26 183 11.3 29.0 0.00 0.00 0.00 47 1011.8
20260504204814 26 229 14.5 29.0 0.00 0.00 0.00 46 1011.9
20260504204722 26 167 16.1 29.0 0.00 0.00 0.00 45 1011.9
20260504204609 26 183 14.5 29.0 0.00 0.00 0.00 44 1012.0
20260504204538 26 175 16.1 29.0 0.00 0.00 0.00 44 1011.9
20260504204424 26 189 17.7 29.0 0.00 0.00 0.00 44 1011.9
20260504204311 26 167 20.9 30.6 0.00 0.00 0.00 44 1011.9
20260504204222 26 212 19.3 27.4 0.00 0.00 0.00 44 1011.9
20260504204110 26 198 14.5 24.1 0.00 0.00 0.00 45 1011.8
20260504204017 26 157 12.9 24.1 0.00 0.00 0.00 46 1011.8
20260504203946 26 142 11.3 24.1 0.00 0.00 0.00 45 1011.8
20260504203811 26 191 11.3 24.1 0.00 0.00 0.00 47 1011.9
20260504203719 26 163 11.3 30.6 0.00 0.00 0.00 45 1011.9
20260504203631 26 140 12.9 30.6 0.00 0.00 0.00 47 1011.9
20260504203602 26 153 12.9 30.6 0.00 0.00 0.00 47 1011.9
20260504203316 26 178 16.1 30.6 0.00 0.00 0.00 46 1012.0
20260504203223 26 184 16.1 30.6 0.00 0.00 0.00 46 1012.0
20260504203115 26 178 14.5 30.6 0.00 0.00 0.00 45 1012.0
20260504203023 25 178 14.5 30.6 0.00 0.00 0.00 45 1012.0
20260504202911 25 190 17.7 25.7 0.00 0.00 0.00 44 1012.0
20260504202817 25 178 16.1 25.7 0.00 0.00 0.00 44 1012.0
20260504202725 25 206 14.5 25.7 0.00 0.00 0.00 44 1012.0
20260504202616 25 200 14.5 20.9 0.00 0.00 0.00 45 1012.0
20260504202524 25 200 12.9 19.3 0.00 0.00 0.00 46 1012.0
20260504202411 25 185 14.5 19.3 0.00 0.00 0.00 45 1012.1
20260504202319 25 171 12.9 19.3 0.00 0.00 0.00 44 1012.1
20260504202247 25 158 11.3 20.9 0.00 0.00 0.00 45 1012.1
20260504202114 25 192 11.3 22.5 0.00 0.00 0.00 45 1012.0
20260504202049 25 265 11.3 22.5 0.00 0.00 0.00 45 1012.0
20260504201822 25 195 11.3 35.4 0.00 0.00 0.00 45 1012.1
20260504201709 25 109 11.3 35.4 0.00 0.00 0.00 45 1012.1
20260504201617 25 150 11.3 35.4 0.00 0.00 0.00 45 1012.1
20260504201525 25 142 12.9 35.4 0.00 0.00 0.00 46 1012.1
20260504201415 25 206 12.9 35.4 0.00 0.00 0.00 46 1012.1
20260504201322 25 178 12.9 35.4 0.00 0.00 0.00 46 1012.1
20260504201248 25 194 12.9 35.4 0.00 0.00 0.00 45 1012.2
20260504201115 25 188 17.7 35.4 0.00 0.00 0.00 45 1012.2
20260504201042 25 194 17.7 35.4 0.00 0.00 0.00 45 1012.2
20260504200929 25 186 16.1 30.6 0.00 0.00 0.00 45 1012.2
20260504200821 25 103 12.9 20.9 0.00 0.00 0.00 45 1012.2
20260504200748 25 193 11.3 19.3 0.00 0.00 0.00 47 1012.2
20260504200614 25 222 9.7 25.7 0.00 0.00 0.00 48 1012.1
20260504200545 25 212 9.7 25.7 0.00 0.00 0.00 47 1012.1
20260504200318 25 200 9.7 25.7 0.00 0.00 0.00 48 1012.2
20260504200229 25 200 11.3 25.7 0.00 0.00 0.00 47 1012.2
20260504200116 25 185 14.5 27.4 0.00 0.00 0.00 46 1012.3
20260504200023 25 223 12.9 27.4 0.00 0.00 0.00 46 1012.3
20260504195912 25 181 12.9 27.4 0.00 0.00 0.00 46 1012.3
20260504195839 25 187 14.5 27.4 0.00 0.00 0.00 46 1012.3
20260504195724 25 189 16.1 27.4 0.00 0.00 0.00 46 1012.3
20260504195616 26 158 14.5 27.4 0.00 0.00 0.00 45 1012.3
20260504195524 26 187 14.5 27.4 0.00 0.00 0.00 45 1012.3
20260504195410 26 174 12.9 27.4 0.00 0.00 0.00 45 1012.2
20260504195317 26 200 14.5 27.4 0.00 0.00 0.00 45 1012.4
20260504195225 26 165 16.1 29.0 0.00 0.00 0.00 45 1012.4
20260504195118 26 168 16.1 27.4 0.00 0.00 0.00 45 1012.4
20260504195047 25 157 14.5 27.4 0.00 0.00 0.00 45 1012.4
20260504194821 25 169 11.3 22.5 0.00 0.00 0.00 46 1012.4
20260504194729 26 221 11.3 22.5 0.00 0.00 0.00 47 1012.4
20260504194619 26 146 12.9 22.5 0.00 0.00 0.00 46 1012.5
20260504194527 26 124 9.7 22.5 0.00 0.00 0.00 46 1012.5
20260504194416 26 154 9.7 22.5 0.00 0.00 0.00 47 1012.5
20260504194322 25 132 12.9 22.5 0.00 0.00 0.00 47 1012.5
20260504194210 25 197 11.3 22.5 0.00 0.00 0.00 47 1012.5
20260504194119 25 153 9.7 24.1 0.00 0.00 0.00 48 1012.5
20260504194010 25 172 9.7 24.1 0.00 0.00 0.00 49 1012.6
20260504193917 25 203 11.3 25.7 0.00 0.00 0.00 49 1012.6
20260504193824 25 193 12.9 25.7 0.00 0.00 0.00 48 1012.6
20260504193712 25 180 11.3 25.7 0.00 0.00 0.00 48 1012.5
20260504193620 25 207 8.0 27.4 0.00 0.00 0.00 48 1012.5
20260504193556 25 178 9.7 27.4 0.00 0.00 0.00 47 1012.6
20260504193309 26 325 12.9 27.4 0.00 0.00 0.00 47 1012.7
20260504193218 26 174 16.1 27.4 0.00 0.00 0.00 49 1012.6
20260504193126 26 143 14.5 27.4 0.00 0.00 0.00 47 1012.6
20260504193017 26 161 14.5 27.4 0.00 0.00 0.00 49 1012.7
20260504192924 26 206 14.5 27.4 0.00 0.00 0.00 48 1012.7
20260504192812 26 203 16.1 27.4 0.00 0.00 0.00 47 1012.7
20260504192720 26 176 12.9 24.1 0.00 0.00 0.00 48 1012.7
20260504192626 26 175 9.7 19.3 0.00 0.00 0.00 51 1012.7
20260504192513 25 200 6.4 17.7 0.00 0.00 0.00 50 1012.7
20260504192425 25 174 6.4 17.7 0.00 0.00 0.00 49 1012.7
20260504192312 25 120 6.4 17.7 0.00 0.00 0.00 49 1012.8
20260504192221 25 215 8.0 17.7 0.00 0.00 0.00 49 1012.8
20260504192149 25 190 9.7 17.7 0.00 0.00 0.00 49 1012.8
20260504192058 25 178 12.9 19.3 0.00 0.00 0.00 49 1012.7
20260504191817 25 202 12.9 19.3 0.00 0.00 0.00 48 1012.8
20260504191744 25 220 9.7 19.3 0.00 0.00 0.00 49 1012.8
20260504191610 25 203 9.7 19.3 0.00 0.00 0.00 50 1012.9
20260504191518 25 177 11.3 19.3 0.00 0.00 0.00 49 1012.9
20260504191424 25 167 11.3 19.3 0.00 0.00 0.00 49 1012.9
20260504191316 25 199 12.9 19.3 0.00 0.00 0.00 47 1012.9
20260504191243 25 196 14.5 19.3 0.00 0.00 0.00 47 1012.9
20260504191111 25 223 14.5 19.3 0.00 0.00 0.00 48 1013.0
20260504191017 25 192 12.9 20.9 0.00 0.00 0.00 50 1013.0
20260504190925 25 198 11.3 19.3 0.00 0.00 0.00 50 1013.0
20260504190813 25 200 11.3 19.3 0.00 0.00 0.00 48 1013.1
20260504190725 25 232 9.7 19.3 0.00 0.00 0.00 51 1013.1
20260504190652 25 192 8.0 19.3 0.00 0.00 0.00 49 1013.1
20260504190620 25 179 8.0 19.3 0.00 0.00 0.00 49 1013.1
20260504190311 25 170 9.7 19.3 0.00 0.00 0.00 49 1013.1
20260504190239 25 221 11.3 19.3 0.00 0.00 0.00 49 1013.1
20260504190125 25 205 9.7 19.3 0.00 0.00 0.00 49 1013.1
20260504190037 25 194 6.4 22.5 0.00 0.00 0.00 48 1013.1
20260504185923 25 190 8.0 22.5 0.00 0.00 0.00 47 1013.1
20260504185810 25 160 9.7 22.5 0.00 0.00 0.00 47 1013.2
20260504185718 25 190 9.7 20.9 0.00 0.00 0.00 48 1013.2
20260504185627 25 192 9.7 20.9 0.00 0.00 0.00 48 1013.2
20260504185518 25 179 12.9 20.9 0.00 0.00 0.00 48 1013.2
20260504185425 25 242 14.5 20.9 0.00 0.00 0.00 47 1013.2
20260504185332 25 290 14.5 20.9 0.00 0.00 0.00 48 1013.2
20260504185239 25 211 12.9 20.9 0.00 0.00 0.00 47 1013.1
20260504185125 25 258 12.9 20.9 0.00 0.00 0.00 48 1013.1
20260504185055 25 220 12.9 20.9 0.00 0.00 0.00 48 1013.2
20260504184813 25 185 14.5 20.9 0.00 0.00 0.00 47 1013.3
20260504184741 25 209 9.7 22.5 0.00 0.00 0.00 47 1013.3
20260504184648 25 181 8.0 14.5 0.00 0.00 0.00 47 1013.2
20260504184514 25 191 9.7 19.3 0.00 0.00 0.00 47 1013.4
20260504184421 25 210 9.7 19.3 0.00 0.00 0.00 47 1013.4
20260504184328 26 177 9.7 24.1 0.00 0.00 0.00 47 1013.4
20260504184219 26 229 9.7 24.1 0.00 0.00 0.00 47 1013.5
20260504184127 26 150 8.0 24.1 0.00 0.00 0.00 47 1013.5
20260504184035 26 208 6.4 24.1 0.00 0.00 0.00 50 1013.5
20260504183920 26 195 9.7 24.1 0.00 0.00 0.00 49 1013.5
20260504183829 25 229 9.7 24.1 0.00 0.00 0.00 49 1013.4
20260504183715 25 270 11.3 24.1 0.00 0.00 0.00 49 1013.4
20260504183627 25 214 9.7 24.1 0.00 0.00 0.00 48 1013.4
20260504183557 25 219 8.0 17.7 0.00 0.00 0.00 48 1013.5
20260504183331 25 232 8.0 16.1 0.00 0.00 0.00 48 1013.4
20260504183217 25 195 11.3 16.1 0.00 0.00 0.00 46 1013.5
20260504183124 25 210 11.3 20.9 0.00 0.00 0.00 46 1013.5
20260504183016 25 207 11.3 20.9 0.00 0.00 0.00 47 1013.5
20260504182923 25 261 9.7 20.9 0.00 0.00 0.00 49 1013.5
20260504182810 25 292 8.0 20.9 0.00 0.00 0.00 48 1013.6
20260504182717 25 186 6.4 24.1 0.00 0.00 0.00 48 1013.6
20260504182625 25 215 6.4 24.1 0.00 0.00 0.00 49 1013.6
20260504182517 25 200 8.0 25.7 0.00 0.00 0.00 47 1013.5
20260504182424 25 248 12.9 25.7 0.00 0.00 0.00 48 1013.5
20260504182311 25 252 12.9 25.7 0.00 0.00 0.00 49 1013.5
20260504182238 25 254 11.3 25.7 0.00 0.00 0.00 51 1013.5
20260504182125 25 159 12.9 25.7 0.00 0.00 0.00 49 1013.5
20260504182059 25 164 14.5 25.7 0.00 0.00 0.00 49 1013.5
20260504181833 25 186 17.7 25.7 0.00 0.00 0.00 48 1013.8
20260504181718 25 189 17.7 25.7 0.00 0.00 0.00 48 1013.8
20260504181627 25 207 17.7 29.0 0.00 0.00 0.00 49 1013.8
20260504181513 25 234 17.7 32.2 0.00 0.00 0.00 49 1013.8
20260504181422 25 200 12.9 24.1 0.00 0.00 0.00 49 1013.8
20260504181313 25 182 14.5 24.1 0.00 0.00 0.00 49 1013.9
20260504181220 25 257 12.9 24.1 0.00 0.00 0.00 49 1013.9
20260504181128 25 257 11.3 24.1 0.00 0.00 0.00 48 1013.8
20260504181016 25 281 11.3 24.1 0.00 0.00 0.00 48 1013.9
20260504180922 25 202 11.3 24.1 0.00 0.00 0.00 49 1013.9
20260504180814 25 196 12.9 24.1 0.00 0.00 0.00 49 1014.0
20260504180721 25 245 14.5 24.1 0.00 0.00 0.00 48 1014.0
20260504180629 25 200 12.9 19.3 0.00 0.00 0.00 49 1013.9
20260504180559 25 233 11.3 19.3 0.00 0.00 0.00 49 1013.9
20260504180334 25 244 8.0 19.3 0.00 0.00 0.00 49 1013.9
20260504180223 25 157 8.0 19.3 0.00 0.00 0.00 50 1013.9
20260504180110 25 263 9.7 19.3 0.00 0.00 0.00 50 1014.0
20260504180018 25 227 9.7 19.3 0.00 0.00 0.00 50 1014.0
20260504175925 25 247 11.3 24.1 0.00 0.00 0.00 48 1014.0
20260504175812 25 220 11.3 24.1 0.00 0.00 0.00 48 1014.0
20260504175720 25 178 11.3 24.1 0.00 0.00 0.00 50 1014.0
20260504175612 25 238 11.3 24.1 0.00 0.00 0.00 51 1014.0
20260504175520 25 186 9.7 24.1 0.00 0.00 0.00 50 1014.0
20260504175447 25 162 11.3 24.1 0.00 0.00 0.00 51 1014.0
20260504175313 25 188 14.5 24.1 0.00 0.00 0.00 49 1014.0
20260504175221 25 188 14.5 24.1 0.00 0.00 0.00 50 1014.0
20260504175128 25 209 14.5 25.7 0.00 0.00 0.00 49 1014.0
20260504175102 25 165 14.5 25.7 0.00 0.00 0.00 49 1014.0
20260504174816 25 198 11.3 25.7 0.00 0.00 0.00 50 1014.1
20260504174721 25 277 9.7 25.7 0.00 0.00 0.00 52 1014.1
20260504174629 25 228 6.4 25.7 0.00 0.00 0.00 52 1014.1
20260504174520 25 276 6.4 25.7 0.00 0.00 0.00 51 1014.1
20260504174428 25 246 9.7 25.7 0.00 0.00 0.00 51 1014.1
20260504174316 25 233 9.7 25.7 0.00 0.00 0.00 50 1014.2
20260504174223 25 177 11.3 25.7 0.00 0.00 0.00 51 1014.2
20260504174109 25 217 12.9 25.7 0.00 0.00 0.00 51 1014.3
20260504174016 25 188 11.3 24.1 0.00 0.00 0.00 52 1014.1
20260504173928 25 212 9.7 17.7 0.00 0.00 0.00 52 1014.1
20260504173837 24 196 8.0 16.1 0.00 0.00 0.00 52 1014.2
20260504173722 24 218 6.4 24.1 0.00 0.00 0.00 50 1014.2
20260504173649 24 185 8.0 24.1 0.00 0.00 0.00 51 1014.3
20260504173600 24 105 9.7 22.5 0.00 0.00 0.00 51 1014.3
20260504173317 24 200 11.3 22.5 0.00 0.00 0.00 51 1014.4
20260504173224 24 200 12.9 22.5 0.00 0.00 0.00 52 1014.4
20260504173111 24 203 8.0 22.5 0.00 0.00 0.00 51 1014.5
20260504173019 24 190 8.0 22.5 0.00 0.00 0.00 51 1014.5
20260504172927 24 235 11.3 22.5 0.00 0.00 0.00 51 1014.5
20260504172814 24 238 16.1 24.1 0.00 0.00 0.00 51 1014.5
20260504172726 24 198 16.1 24.1 0.00 0.00 0.00 51 1014.5
20260504172614 24 244 12.9 20.9 0.00 0.00 0.00 52 1014.5
20260504172521 24 156 11.3 20.9 0.00 0.00 0.00 51 1014.5
20260504172410 24 232 9.7 22.5 0.00 0.00 0.00 51 1014.5
20260504172318 24 198 11.3 22.5 0.00 0.00 0.00 51 1014.5
20260504172230 24 226 11.3 22.5 0.00 0.00 0.00 51 1014.5
20260504172158 24 185 9.7 22.5 0.00 0.00 0.00 51 1014.5
20260504172107 24 174 8.0 22.5 0.00 0.00 0.00 51 1014.5
20260504171820 24 229 9.7 22.5 0.00 0.00 0.00 54 1014.5
20260504171728 24 184 12.9 22.5 0.00 0.00 0.00 51 1014.6
20260504171619 24 198 11.3 22.5 0.00 0.00 0.00 51 1014.7
20260504171547 24 198 8.0 17.7 0.00 0.00 0.00 51 1014.7
20260504171434 24 248 6.4 12.9 0.00 0.00 0.00 51 1014.7
20260504171321 24 243 4.8 12.9 0.00 0.00 0.00 53 1014.7
20260504171249 24 254 6.4 14.5 0.00 0.00 0.00 54 1014.6
20260504171135 24 270 8.0 16.1 0.00 0.00 0.00 52 1014.7
20260504171022 24 269 6.4 16.1 0.00 0.00 0.00 52 1014.7
20260504170931 24 270 8.0 16.1 0.00 0.00 0.00 52 1014.8
20260504170821 24 231 6.4 16.1 0.00 0.00 0.00 53 1014.8
20260504170728 24 259 8.0 16.1 0.00 0.00 0.00 51 1014.8
20260504170616 24 197 11.3 19.3 0.00 0.00 0.00 51 1014.9
20260504170547 24 197 11.3 19.3 0.00 0.00 0.00 50 1014.9
20260504170325 24 196 11.3 19.3 0.00 0.00 0.00 51 1014.8
20260504170213 24 259 11.3 19.3 0.00 0.00 0.00 51 1014.8
20260504170121 24 273 11.3 19.3 0.00 0.00 0.00 52 1014.8
20260504160315 22 215 11.3 22.5 0.00 0.00 0.00 53 1015.4
20260504160224 22 252 11.3 22.5 0.00 0.00 0.00 55 1015.4
20260504160111 22 209 8.0 16.1 0.00 0.00 0.00 55 1015.5
20260504151122 21 207 14.5 24.1 0.00 0.00 0.00 54 1015.7
20260504151011 21 200 11.3 24.1 0.00 0.00 0.00 54 1015.6
20260504150919 21 187 9.7 20.9 0.00 0.00 0.00 56 1015.7
20260504150826 21 261 8.0 14.5 0.00 0.00 0.00 55 1015.7
20260504150714 21 227 6.4 19.3 0.00 0.00 0.00 55 1015.7
20260504150645 21 254 8.0 19.3 0.00 0.00 0.00 56 1015.7
20260504150615 21 176 9.7 19.3 0.00 0.00 0.00 56 1015.7
20260504150327 21 244 9.7 19.3 0.00 0.00 0.00 55 1015.7
20260504150215 21 180 8.0 19.3 0.00 0.00 0.00 54 1015.8
20260504150123 21 197 9.7 19.3 0.00 0.00 0.00 55 1015.8
20260504141314 18 224 4.8 16.1 0.00 0.00 0.00 61 1016.1
20260504141222 18 205 8.0 16.1 0.00 0.00 0.00 60 1016.1
20260504141129 18 191 9.7 16.1 0.00 0.00 0.00 60 1016.1
20260504141017 18 215 6.4 16.1 0.00 0.00 0.00 61 1016.2
20260504140924 18 144 6.4 16.1 0.00 0.00 0.00 60 1016.2
20260504140815 18 198 9.7 16.1 0.00 0.00 0.00 59 1016.2
20260504140723 18 155 11.3 16.1 0.00 0.00 0.00 59 1016.2
20260504140631 18 188 9.7 17.7 0.00 0.00 0.00 61 1016.3
20260504140602 18 183 9.7 16.1 0.00 0.00 0.00 59 1016.2
20260504140334 18 193 9.7 14.5 0.00 0.00 0.00 60 1016.3
20260504140225 18 220 6.4 16.1 0.00 0.00 0.00 61 1016.3
20260504140112 18 209 6.4 16.1 0.00 0.00 0.00 61 1016.4
20260504130727 16 194 9.7 14.5 0.00 0.00 0.00 63 1016.5
20260504130615 16 190 8.0 16.1 0.00 0.00 0.00 63 1016.5
20260504130550 16 209 8.0 16.1 0.00 0.00 0.00 63 1016.5
20260504130324 15 184 6.4 16.1 0.00 0.00 0.00 64 1016.5
20260504130211 15 198 8.0 16.1 0.00 0.00 0.00 63 1016.5
20260504130117 15 184 6.4 16.1 0.00 0.00 0.00 64 1016.5
20260504120312 12 141 6.4 11.3 0.00 0.00 0.00 73 1015.9
20260504120221 12 130 6.4 11.3 0.00 0.00 0.00 74 1015.9
20260504120112 12 130 6.4 11.3 0.00 0.00 0.00 74 1016.0
20260504110628 9 145 4.8 6.4 0.00 0.00 0.00 84 1015.6
20260504110559 9 146 4.8 6.4 0.00 0.00 0.00 84 1015.5
20260504110333 9 146 4.8 4.8 0.00 0.00 0.00 84 1015.5
20260504110245 9 146 4.8 4.8 0.00 0.00 0.00 84 1015.5
20260504110110 9 146 3.2 4.8 0.00 0.00 0.00 84 1015.5
20260504100543 9 146 1.6 4.8 0.00 0.00 0.00 85 1015.4
20260504100317 9 151 1.6 4.8 0.00 0.00 0.00 85 1015.4
20260504100224 9 151 1.6 4.8 0.00 0.00 0.00 85 1015.4
20260504100113 9 155 0.0 4.8 0.00 0.00 0.00 85 1015.4
20260504090119 10 131 1.6 3.2 0.00 0.00 0.00 85 1015.2
20260504081823 10 131 0.0 3.2 0.00 0.00 0.00 79 1015.4
20260504081711 10 131 0.0 3.2 0.00 0.00 0.00 79 1015.4
20260504081619 10 131 0.0 3.2 0.00 0.00 0.00 80 1015.4
20260504081510 10 131 0.0 3.2 0.00 0.00 0.00 79 1015.3
20260504081418 10 131 0.0 3.2 0.00 0.00 0.00 79 1015.3
20260504081346 10 131 1.6 3.2 0.00 0.00 0.00 79 1015.3
20260504081213 10 131 1.6 4.8 0.00 0.00 0.00 79 1015.3
20260504081119 10 131 1.6 4.8 0.00 0.00 0.00 79 1015.3
20260504081027 10 131 1.6 4.8 0.00 0.00 0.00 79 1015.3
20260504080918 10 131 0.0 4.8 0.00 0.00 0.00 79 1015.3
20260504080826 10 131 0.0 4.8 0.00 0.00 0.00 79 1015.3
20260504080734 10 131 1.6 4.8 0.00 0.00 0.00 79 1015.4
20260504080620 10 131 1.6 4.8 0.00 0.00 0.00 79 1015.4
20260504080549 10 131 1.6 4.8 0.00 0.00 0.00 79 1015.4
20260504080343 10 131 1.6 4.8 0.00 0.00 0.00 80 1015.3
20260504080215 10 131 3.2 4.8 0.00 0.00 0.00 80 1015.3
20260504080122 10 131 3.2 4.8 0.00 0.00 0.00 80 1015.3
20260504070323 10 131 0.0 1.6 0.00 0.00 0.00 79 1015.7
20260504070210 10 131 0.0 1.6 0.00 0.00 0.00 79 1015.7
20260504070118 10 131 0.0 3.2 0.00 0.00 0.00 79 1015.7
20260504060210 11 136 4.8 6.4 0.00 0.00 0.00 76 1016.1
20260504060118 11 132 4.8 8.0 0.00 0.00 0.00 76 1016.1
20260504050724 12 142 1.6 3.2 0.00 0.00 0.00 74 1016.7
20260504050612 12 142 0.0 3.2 0.00 0.00 0.00 74 1016.7
20260504050543 12 142 0.0 4.8 0.00 0.00 0.00 74 1016.7
20260504050335 12 142 0.0 4.8 0.00 0.00 0.00 74 1016.7
20260504050220 12 142 0.0 4.8 0.00 0.00 0.00 74 1016.6
20260504050111 12 142 0.0 4.8 0.00 0.00 0.00 74 1016.7
20260504050018 12 142 0.0 4.8 0.00 0.00 0.00 74 1016.7
20260504045923 12 142 0.0 4.8 0.00 0.00 0.00 74 1016.7
20260504045813 12 142 1.6 4.8 0.00 0.00 0.00 74 1016.6
20260504045720 12 142 1.6 4.8 0.00 0.00 0.00 74 1016.6
20260504045611 12 142 3.2 4.8 0.00 0.00 0.00 74 1016.6
20260504045519 12 142 3.2 4.8 0.00 0.00 0.00 74 1016.6
20260504045426 12 142 3.2 4.8 0.00 0.00 0.00 74 1016.6
20260504045333 12 142 3.2 4.8 0.00 0.00 0.00 74 1016.6
20260504045241 12 142 3.2 4.8 0.00 0.00 0.00 73 1016.6
20260504045128 12 142 3.2 4.8 0.00 0.00 0.00 72 1016.6
20260504045044 12 142 3.2 4.8 0.00 0.00 0.00 72 1016.6
20260504044837 12 142 3.2 4.8 0.00 0.00 0.00 72 1016.6
20260504044742 12 138 3.2 4.8 0.00 0.00 0.00 73 1016.6
20260504044628 12 144 3.2 4.8 0.00 0.00 0.00 73 1016.6
20260504044516 12 144 0.0 3.2 0.00 0.00 0.00 73 1016.6
20260504044444 12 165 0.0 0.0 0.00 0.00 0.00 73 1016.6
20260504044315 12 165 0.0 1.6 0.00 0.00 0.00 73 1016.6
20260504044222 12 165 0.0 1.6 0.00 0.00 0.00 72 1016.6
20260504044111 12 165 0.0 1.6 0.00 0.00 0.00 72 1016.6
20260504044019 12 165 0.0 3.2 0.00 0.00 0.00 72 1016.6
20260504043926 12 165 0.0 3.2 0.00 0.00 0.00 72 1016.6
20260504043834 12 165 0.0 3.2 0.00 0.00 0.00 72 1016.6
20260504043726 12 165 0.0 3.2 0.00 0.00 0.00 72 1016.6
20260504043614 12 165 0.0 3.2 0.00 0.00 0.00 72 1016.7
20260504043546 12 165 0.0 3.2 0.00 0.00 0.00 72 1016.7
20260504043320 12 165 0.0 3.2 0.00 0.00 0.00 72 1016.6
20260504043210 12 165 0.0 3.2 0.00 0.00 0.00 73 1016.5
20260504043118 12 165 0.0 0.0 0.00 0.00 0.00 73 1016.6
20260504043026 12 165 0.0 0.0 0.00 0.00 0.00 73 1016.6
20260504042913 12 165 0.0 0.0 0.00 0.00 0.00 73 1016.7
20260504042821 12 165 0.0 0.0 0.00 0.00 0.00 73 1016.7
20260504042714 12 165 0.0 0.0 0.00 0.00 0.00 73 1016.7
20260504042621 12 165 0.0 0.0 0.00 0.00 0.00 72 1016.7
20260504042510 12 165 0.0 0.0 0.00 0.00 0.00 72 1016.7
20260504042416 12 165 0.0 0.0 0.00 0.00 0.00 72 1016.7
20260504042343 12 165 0.0 0.0 0.00 0.00 0.00 71 1016.7
20260504042211 12 165 0.0 0.0 0.00 0.00 0.00 71 1016.7
20260504042121 12 165 0.0 0.0 0.00 0.00 0.00 71 1016.7
20260504042051 12 165 0.0 0.0 0.00 0.00 0.00 70 1016.7
20260504041825 12 165 0.0 0.0 0.00 0.00 0.00 70 1016.6
20260504041713 12 165 0.0 1.6 0.00 0.00 0.00 70 1016.6
20260504041620 12 165 0.0 3.2 0.00 0.00 0.00 70 1016.6
20260504041511 12 165 0.0 3.2 0.00 0.00 0.00 70 1016.6
20260504041417 12 165 0.0 3.2 0.00 0.00 0.00 70 1016.5
20260504041324 12 165 0.0 3.2 0.00 0.00 0.00 70 1016.5
20260504041212 12 165 0.0 4.8 0.00 0.00 0.00 70 1016.5
20260504041119 12 165 0.0 4.8 0.00 0.00 0.00 70 1016.5
20260504041010 12 165 0.0 6.4 0.00 0.00 0.00 70 1016.5
20260504040918 12 165 1.6 6.4 0.00 0.00 0.00 70 1016.4
20260504040825 12 165 1.6 6.4 0.00 0.00 0.00 70 1016.4
20260504040733 13 165 1.6 6.4 0.00 0.00 0.00 70 1016.4
20260504040618 13 165 3.2 6.4 0.00 0.00 0.00 70 1016.4
20260504040552 13 163 3.2 6.4 0.00 0.00 0.00 70 1016.4
20260504040327 13 194 4.8 6.4 0.00 0.00 0.00 69 1016.5
20260504040215 13 184 3.2 6.4 0.00 0.00 0.00 69 1016.5
20260504040143 13 181 3.2 6.4 0.00 0.00 0.00 69 1016.5
20260504040010 13 178 3.2 6.4 0.00 0.00 0.00 69 1016.5
20260504035918 13 163 3.2 6.4 0.00 0.00 0.00 69 1016.5
20260504035810 13 171 3.2 6.4 0.00 0.00 0.00 69 1016.6
20260504035719 13 175 3.2 6.4 0.00 0.00 0.00 69 1016.5
20260504035647 13 170 3.2 6.4 0.00 0.00 0.00 69 1016.5
20260504035533 13 178 3.2 6.4 0.00 0.00 0.00 69 1016.5
20260504035419 13 168 3.2 6.4 0.00 0.00 0.00 69 1016.5
20260504035327 13 173 3.2 6.4 0.00 0.00 0.00 69 1016.5
20260504035235 13 180 3.2 6.4 0.00 0.00 0.00 69 1016.6
20260504035146 13 175 4.8 6.4 0.00 0.00 0.00 69 1016.6
20260504035116 13 180 4.8 8.0 0.00 0.00 0.00 69 1016.6
20260504034849 13 180 4.8 9.7 0.00 0.00 0.00 68 1016.6
20260504034715 13 177 4.8 9.7 0.00 0.00 0.00 69 1016.5
20260504034643 13 176 4.8 9.7 0.00 0.00 0.00 69 1016.5
20260504034514 13 167 4.8 9.7 0.00 0.00 0.00 68 1016.6
20260504034421 13 174 4.8 9.7 0.00 0.00 0.00 68 1016.6
20260504034328 13 169 4.8 9.7 0.00 0.00 0.00 68 1016.5
20260504034215 13 180 4.8 9.7 0.00 0.00 0.00 68 1016.7
20260504034124 13 186 4.8 8.0 0.00 0.00 0.00 68 1016.7
20260504034012 13 177 4.8 8.0 0.00 0.00 0.00 68 1016.7
20260504033945 13 166 4.8 8.0 0.00 0.00 0.00 68 1016.7
20260504033811 13 182 4.8 8.0 0.00 0.00 0.00 69 1016.7
20260504033718 13 159 4.8 8.0 0.00 0.00 0.00 69 1016.8
20260504033627 13 161 4.8 8.0 0.00 0.00 0.00 68 1016.8
20260504033557 13 171 4.8 9.7 0.00 0.00 0.00 68 1016.7
20260504033314 13 161 4.8 9.7 0.00 0.00 0.00 68 1016.7
20260504033221 13 184 6.4 9.7 0.00 0.00 0.00 68 1016.7
20260504033127 13 173 4.8 8.0 0.00 0.00 0.00 69 1016.7
20260504033014 12 169 4.8 8.0 0.00 0.00 0.00 68 1016.7
20260504032921 12 178 4.8 8.0 0.00 0.00 0.00 68 1016.7
20260504032813 12 183 4.8 8.0 0.00 0.00 0.00 68 1016.8
20260504032720 12 181 4.8 8.0 0.00 0.00 0.00 68 1016.8
20260504032648 12 162 4.8 8.0 0.00 0.00 0.00 69 1016.8
20260504032513 12 160 4.8 8.0 0.00 0.00 0.00 69 1016.9
20260504032440 12 184 4.8 8.0 0.00 0.00 0.00 69 1016.9
20260504032326 12 166 4.8 8.0 0.00 0.00 0.00 69 1016.9
20260504032214 12 171 3.2 6.4 0.00 0.00 0.00 69 1017.0
20260504032125 12 175 3.2 6.4 0.00 0.00 0.00 70 1017.0
20260504032055 12 155 3.2 6.4 0.00 0.00 0.00 71 1016.9
20260504031809 12 174 3.2 6.4 0.00 0.00 0.00 71 1017.0
20260504031736 12 173 3.2 8.0 0.00 0.00 0.00 72 1017.0
20260504031622 12 159 3.2 8.0 0.00 0.00 0.00 72 1017.0
20260504031514 12 159 3.2 8.0 0.00 0.00 0.00 73 1017.0
20260504031421 12 150 3.2 4.8 0.00 0.00 0.00 72 1017.0
20260504031329 12 146 3.2 4.8 0.00 0.00 0.00 73 1017.0
20260504031237 12 143 3.2 4.8 0.00 0.00 0.00 73 1017.0
20260504031122 12 148 3.2 4.8 0.00 0.00 0.00 73 1017.0
20260504031015 12 126 3.2 4.8 0.00 0.00 0.00 74 1017.1
20260504030923 12 126 1.6 3.2 0.00 0.00 0.00 73 1017.1
20260504030810 12 126 1.6 3.2 0.00 0.00 0.00 72 1017.1
20260504030719 12 126 1.6 3.2 0.00 0.00 0.00 72 1017.1
20260504030626 12 126 0.0 3.2 0.00 0.00 0.00 72 1017.1
20260504030601 13 126 0.0 1.6 0.00 0.00 0.00 72 1017.0
20260504030314 13 126 0.0 0.0 0.00 0.00 0.00 74 1017.2
20260504030222 13 126 0.0 0.0 0.00 0.00 0.00 75 1017.2
20260504030110 13 126 0.0 0.0 0.00 0.00 0.00 75 1017.1
20260504030017 13 126 0.0 0.0 0.00 0.00 0.00 75 1017.2
20260504025910 13 126 0.0 0.0 0.00 0.00 0.00 75 1017.1
20260504025816 13 126 0.0 0.0 0.00 0.00 0.00 76 1017.2
20260504025725 13 126 0.0 0.0 0.00 0.00 0.00 77 1017.2
20260504025613 13 126 0.0 0.0 0.00 0.00 0.00 75 1017.1
20260504025520 13 126 0.0 0.0 0.00 0.00 0.00 76 1017.2
20260504025447 13 126 0.0 0.0 0.00 0.00 0.00 77 1017.2
20260504025317 13 126 0.0 0.0 0.00 0.00 0.00 77 1017.1
20260504025225 13 126 0.0 0.0 0.00 0.00 0.00 77 1017.1
20260504025132 13 126 0.0 0.0 0.00 0.00 0.00 76 1017.2
20260504025102 13 126 0.0 0.0 0.00 0.00 0.00 72 1017.2
20260504024820 13 126 0.0 0.0 0.00 0.00 0.00 68 1017.1
20260504024726 13 126 0.0 0.0 0.00 0.00 0.00 68 1017.1
20260504024615 13 126 0.0 0.0 0.00 0.00 0.00 68 1017.1
20260504024522 13 126 0.0 0.0 0.00 0.00 0.00 69 1017.1
20260504024429 13 126 0.0 0.0 0.00 0.00 0.00 69 1017.1
20260504024316 13 126 0.0 0.0 0.00 0.00 0.00 69 1017.1
20260504024227 13 126 0.0 0.0 0.00 0.00 0.00 69 1017.1
20260504024115 13 126 0.0 0.0 0.00 0.00 0.00 68 1017.0
20260504024022 13 126 0.0 0.0 0.00 0.00 0.00 68 1017.0
20260504023909 13 126 0.0 0.0 0.00 0.00 0.00 68 1017.0
20260504023817 13 126 0.0 0.0 0.00 0.00 0.00 68 1016.9
20260504023709 13 126 0.0 0.0 0.00 0.00 0.00 68 1017.0
20260504023637 13 126 0.0 0.0 0.00 0.00 0.00 68 1017.0
20260504023546 13 126 0.0 0.0 0.00 0.00 0.00 68 1017.0
20260504023319 13 126 0.0 0.0 0.00 0.00 0.00 69 1017.0
20260504023227 13 126 0.0 0.0 0.00 0.00 0.00 69 1017.0
20260504023118 13 126 0.0 0.0 0.00 0.00 0.00 68 1016.9
20260504023026 13 126 0.0 0.0 0.00 0.00 0.00 68 1016.9
20260504022914 13 126 0.0 0.0 0.00 0.00 0.00 68 1017.0
20260504022821 13 126 0.0 0.0 0.00 0.00 0.00 67 1017.0
20260504022729 13 126 0.0 0.0 0.00 0.00 0.00 67 1017.1
20260504022620 13 126 0.0 0.0 0.00 0.00 0.00 67 1017.0
20260504022527 13 126 0.0 0.0 0.00 0.00 0.00 67 1017.0
20260504022415 13 126 0.0 0.0 0.00 0.00 0.00 67 1017.0
20260504022322 13 126 0.0 0.0 0.00 0.00 0.00 67 1017.0
20260504022228 13 126 0.0 0.0 0.00 0.00 0.00 67 1017.1
20260504022135 13 126 0.0 0.0 0.00 0.00 0.00 66 1017.0
20260504022110 13 126 0.0 0.0 0.00 0.00 0.00 66 1017.0
20260504021822 13 126 0.0 0.0 0.00 0.00 0.00 65 1016.9
20260504021709 14 126 0.0 0.0 0.00 0.00 0.00 65 1016.9
20260504021616 14 126 0.0 0.0 0.00 0.00 0.00 65 1016.9
20260504021544 14 126 0.0 0.0 0.00 0.00 0.00 65 1016.9
20260504021414 14 126 0.0 0.0 0.00 0.00 0.00 66 1017.0
20260504021321 14 126 0.0 0.0 0.00 0.00 0.00 66 1017.0
20260504021209 14 126 0.0 0.0 0.00 0.00 0.00 66 1016.9
20260504021117 14 126 0.0 0.0 0.00 0.00 0.00 66 1017.0
20260504021025 14 126 0.0 0.0 0.00 0.00 0.00 65 1017.0
20260504020913 14 126 0.0 0.0 0.00 0.00 0.00 65 1016.9
20260504020823 14 126 0.0 0.0 0.00 0.00 0.00 64 1016.9
20260504020710 14 126 0.0 0.0 0.00 0.00 0.00 64 1016.9
20260504020637 14 126 0.0 0.0 0.00 0.00 0.00 63 1016.8
20260504020547 14 126 0.0 0.0 0.00 0.00 0.00 63 1016.8
20260504020321 15 126 0.0 0.0 0.00 0.00 0.00 63 1016.8
20260504020214 15 126 0.0 0.0 0.00 0.00 0.00 62 1016.8
20260504020121 15 126 0.0 0.0 0.00 0.00 0.00 62 1016.8
20260504020027 15 126 0.0 0.0 0.00 0.00 0.00 62 1016.8
20260504015915 15 126 0.0 0.0 0.00 0.00 0.00 62 1016.7
20260504015823 15 126 0.0 0.0 0.00 0.00 0.00 61 1016.7
20260504015714 15 126 0.0 0.0 0.00 0.00 0.00 61 1016.8
20260504015622 15 126 0.0 0.0 0.00 0.00 0.00 61 1016.8
20260504015509 15 126 0.0 0.0 0.00 0.00 0.00 61 1016.8
20260504015417 15 126 0.0 0.0 0.00 0.00 0.00 61 1016.8
20260504015323 15 126 0.0 0.0 0.00 0.00 0.00 60 1016.8
20260504015214 15 126 0.0 0.0 0.00 0.00 0.00 60 1016.8
20260504015142 15 126 0.0 0.0 0.00 0.00 0.00 60 1016.8
20260504015051 15 126 0.0 0.0 0.00 0.00 0.00 60 1016.7
20260504014826 15 126 0.0 0.0 0.00 0.00 0.00 61 1016.7
20260504014713 15 126 0.0 0.0 0.00 0.00 0.00 61 1016.8
20260504014641 15 126 0.0 0.0 0.00 0.00 0.00 60 1016.7
20260504014532 15 126 0.0 0.0 0.00 0.00 0.00 61 1016.6
20260504014420 15 126 0.0 0.0 0.00 0.00 0.00 61 1016.7
20260504014327 15 126 0.0 0.0 0.00 0.00 0.00 61 1016.7
20260504014214 15 126 0.0 0.0 0.00 0.00 0.00 60 1016.5
20260504014121 15 126 0.0 0.0 0.00 0.00 0.00 60 1016.5
20260504014011 15 126 0.0 0.0 0.00 0.00 0.00 59 1016.4
20260504013939 16 126 0.0 0.0 0.00 0.00 0.00 58 1016.5
20260504013826 16 126 0.0 0.0 0.00 0.00 0.00 57 1016.5
20260504013734 16 126 0.0 0.0 0.00 0.00 0.00 57 1016.4
20260504013621 16 126 0.0 0.0 0.00 0.00 0.00 57 1016.4
20260504013552 16 126 0.0 0.0 0.00 0.00 0.00 56 1016.3
20260504013330 16 126 0.0 0.0 0.00 0.00 0.00 56 1016.3
20260504013236 16 126 0.0 0.0 0.00 0.00 0.00 55 1016.2
20260504013143 16 126 0.0 0.0 0.00 0.00 0.00 54 1016.2
20260504013028 16 126 0.0 0.0 0.00 0.00 0.00 54 1016.2
20260504012917 16 126 0.0 0.0 0.00 0.00 0.00 54 1016.3
20260504012825 16 126 0.0 0.0 0.00 0.00 0.00 54 1016.3
20260504012716 16 126 0.0 0.0 0.00 0.00 0.00 54 1016.2
20260504012624 16 126 0.0 1.6 0.00 0.00 0.00 53 1016.2
20260504012511 16 126 0.0 1.6 0.00 0.00 0.00 53 1016.1
20260504012419 16 126 0.0 1.6 0.00 0.00 0.00 53 1016.1
20260504012327 16 126 0.0 1.6 0.00 0.00 0.00 53 1016.1
20260504012214 16 126 0.0 1.6 0.00 0.00 0.00 53 1016.1
20260504012125 16 126 0.0 1.6 0.00 0.00 0.00 53 1016.1
20260504012056 16 126 0.0 3.2 0.00 0.00 0.00 53 1016.0
20260504011809 16 126 0.0 3.2 0.00 0.00 0.00 52 1016.0
20260504011717 16 126 0.0 3.2 0.00 0.00 0.00 52 1016.0
20260504011643 16 126 0.0 3.2 0.00 0.00 0.00 52 1016.0
20260504011513 16 126 1.6 3.2 0.00 0.00 0.00 52 1016.0
20260504011441 16 126 1.6 3.2 0.00 0.00 0.00 51 1016.0
20260504011328 16 126 1.6 3.2 0.00 0.00 0.00 51 1016.0
20260504011214 16 126 1.6 3.2 0.00 0.00 0.00 51 1016.0
20260504011122 16 126 3.2 3.2 0.00 0.00 0.00 52 1016.0
20260504011014 16 126 3.2 3.2 0.00 0.00 0.00 51 1016.0
20260504010922 17 126 1.6 3.2 0.00 0.00 0.00 51 1016.0
20260504010809 17 126 3.2 3.2 0.00 0.00 0.00 51 1015.9
20260504010736 17 126 1.6 3.2 0.00 0.00 0.00 50 1016.0
20260504010642 17 126 1.6 3.2 0.00 0.00 0.00 47 1016.0
20260504010551 17 126 1.6 3.2 0.00 0.00 0.00 47 1016.0
20260504010328 17 226 1.6 3.2 0.00 0.00 0.00 46 1016.0
20260504010215 17 226 3.2 3.2 0.00 0.00 0.00 47 1016.0
20260504010122 17 226 3.2 3.2 0.00 0.00 0.00 47 1016.0
20260504010010 17 229 1.6 3.2 0.00 0.00 0.00 47 1016.0
20260504005918 17 229 1.6 3.2 0.00 0.00 0.00 47 1016.0
20260504005810 17 229 1.6 3.2 0.00 0.00 0.00 47 1016.0
20260504005716 17 229 1.6 3.2 0.00 0.00 0.00 47 1016.0
20260504005644 17 229 1.6 3.2 0.00 0.00 0.00 47 1016.0
20260504005530 17 229 1.6 3.2 0.00 0.00 0.00 47 1015.9
20260504005418 17 229 0.0 4.8 0.00 0.00 0.00 47 1016.0
20260504005344 17 229 0.0 4.8 0.00 0.00 0.00 46 1016.0
20260504005228 17 229 0.0 4.8 0.00 0.00 0.00 45 1016.0
20260504005155 17 229 1.6 4.8 0.00 0.00 0.00 46 1016.0
20260504005110 17 229 1.6 4.8 0.00 0.00 0.00 45 1016.0
20260504004843 17 229 3.2 4.8 0.00 0.00 0.00 45 1016.1
20260504004709 17 229 1.6 4.8 0.00 0.00 0.00 45 1016.0
20260504004616 17 246 1.6 4.8 0.00 0.00 0.00 45 1016.0
20260504004524 17 265 1.6 3.2 0.00 0.00 0.00 45 1016.0
20260504004416 17 265 1.6 3.2 0.00 0.00 0.00 45 1016.0
20260504004322 17 265 0.0 1.6 0.00 0.00 0.00 44 1016.0
20260504004209 17 265 0.0 1.6 0.00 0.00 0.00 45 1015.9
20260504004116 18 265 0.0 1.6 0.00 0.00 0.00 44 1016.0
20260504004024 18 265 0.0 1.6 0.00 0.00 0.00 44 1016.0
20260504003916 18 265 0.0 1.6 0.00 0.00 0.00 44 1016.0
20260504003824 18 265 0.0 1.6 0.00 0.00 0.00 44 1016.0
20260504003712 18 265 0.0 3.2 0.00 0.00 0.00 44 1016.0
20260504003554 18 265 0.0 3.2 0.00 0.00 0.00 44 1015.9
20260504003328 18 265 0.0 3.2 0.00 0.00 0.00 43 1015.8
20260504003214 18 265 1.6 3.2 0.00 0.00 0.00 43 1015.9
20260504003121 18 265 1.6 3.2 0.00 0.00 0.00 43 1015.9
20260504003028 18 265 1.6 3.2 0.00 0.00 0.00 44 1015.9
20260504002916 18 265 1.6 3.2 0.00 0.00 0.00 43 1016.0
20260504002827 18 269 0.0 3.2 0.00 0.00 0.00 43 1016.0
20260504002715 18 270 0.0 4.8 0.00 0.00 0.00 43 1016.0
20260504002623 18 270 1.6 4.8 0.00 0.00 0.00 44 1016.0
20260504002511 18 270 1.6 4.8 0.00 0.00 0.00 44 1016.0
20260504002419 18 280 0.0 4.8 0.00 0.00 0.00 43 1016.1
20260504002310 18 280 0.0 4.8 0.00 0.00 0.00 43 1016.1
20260504002219 18 280 1.6 4.8 0.00 0.00 0.00 43 1016.1
20260504002125 18 280 1.6 4.8 0.00 0.00 0.00 42 1016.1
20260504002055 18 280 1.6 4.8 0.00 0.00 0.00 43 1016.1
20260504001809 18 285 1.6 4.8 0.00 0.00 0.00 43 1016.2
20260504001720 18 285 1.6 4.8 0.00 0.00 0.00 42 1016.2
20260504001627 18 282 3.2 4.8 0.00 0.00 0.00 42 1016.1
20260504001514 18 315 3.2 4.8 0.00 0.00 0.00 42 1016.1
20260504001441 18 322 1.6 4.8 0.00 0.00 0.00 42 1016.1
20260504001327 18 297 1.6 4.8 0.00 0.00 0.00 41 1016.2
20260504001215 18 330 1.6 4.8 0.00 0.00 0.00 41 1016.2
20260504001126 19 330 3.2 6.4 0.00 0.00 0.00 41 1016.2
20260504001014 19 298 3.2 6.4 0.00 0.00 0.00 41 1016.2
20260504000921 19 301 3.2 6.4 0.00 0.00 0.00 41 1016.2
20260504000827 19 283 1.6 8.0 0.00 0.00 0.00 41 1016.2
20260504000714 19 280 1.6 8.0 0.00 0.00 0.00 41 1016.2
20260504000642 19 279 3.2 8.0 0.00 0.00 0.00 41 1016.2
20260504000555 19 288 3.2 8.0 0.00 0.00 0.00 41 1016.2
20260504000328 19 297 4.8 8.0 0.00 0.00 0.00 41 1016.1
20260504000214 19 316 4.8 9.7 0.00 0.00 0.00 40 1016.2
20260504000121 19 302 4.8 9.7 0.00 0.00 0.00 40 1016.2
20260504000013 19 327 4.8 9.7 0.00 0.00 0.00 40 1016.2
20260503235921 20 313 4.8 9.7 0.00 0.00 0.00 40 1016.2
20260503235828 20 306 4.8 9.7 0.00 0.00 0.00 40 1016.3
20260503235715 20 292 4.8 9.7 0.00 0.00 0.00 39 1016.3
20260503235622 20 326 4.8 9.7 0.00 0.00 0.00 39 1016.3
20260503235530 20 327 6.4 9.7 0.00 0.00 0.00 39 1016.2
20260503235420 20 294 6.4 11.3 0.00 0.00 0.00 39 1016.2
20260503235347 20 328 4.8 11.3 0.00 0.00 0.00 39 1016.3
20260503235214 20 298 4.8 11.3 0.00 0.00 0.00 38 1016.3
20260503235121 20 279 4.8 9.7 0.00 0.00 0.00 38 1016.3
20260503235052 20 305 4.8 9.7 0.00 0.00 0.00 38 1016.2
20260503234809 20 337 3.2 9.7 0.00 0.00 0.00 39 1016.3
20260503234717 20 330 1.6 9.7 0.00 0.00 0.00 39 1016.3
20260503234624 20 317 1.6 9.7 0.00 0.00 0.00 39 1016.3
20260503234532 20 292 3.2 9.7 0.00 0.00 0.00 39 1016.2
20260503234418 20 325 4.8 12.9 0.00 0.00 0.00 39 1016.3
20260503234324 20 288 6.4 12.9 0.00 0.00 0.00 38 1016.3
20260503234235 20 326 6.4 12.9 0.00 0.00 0.00 38 1016.3
20260503234122 20 324 6.4 12.9 0.00 0.00 0.00 38 1016.3
20260503234049 20 293 6.4 12.9 0.00 0.00 0.00 38 1016.3
20260503233914 20 270 6.4 12.9 0.00 0.00 0.00 38 1016.4
20260503233842 20 323 6.4 12.9 0.00 0.00 0.00 38 1016.4
20260503233709 20 301 8.0 12.9 0.00 0.00 0.00 38 1016.4
20260503233637 20 312 8.0 12.9 0.00 0.00 0.00 38 1016.4
20260503233611 20 313 8.0 12.9 0.00 0.00 0.00 38 1016.4
20260503233322 20 317 8.0 12.9 0.00 0.00 0.00 38 1016.4
20260503233250 20 309 6.4 14.5 0.00 0.00 0.00 38 1016.4
20260503233116 20 323 4.8 14.5 0.00 0.00 0.00 39 1016.4
20260503233023 20 290 6.4 14.5 0.00 0.00 0.00 39 1016.4
20260503232935 20 319 4.8 14.5 0.00 0.00 0.00 38 1016.3
20260503232820 20 305 4.8 14.5 0.00 0.00 0.00 38 1016.3
20260503232726 20 330 4.8 14.5 0.00 0.00 0.00 39 1016.4
20260503232614 20 287 4.8 14.5 0.00 0.00 0.00 38 1016.4
20260503232521 20 317 6.4 14.5 0.00 0.00 0.00 38 1016.4
20260503232409 20 311 9.7 14.5 0.00 0.00 0.00 38 1016.4
20260503232341 20 292 9.7 14.5 0.00 0.00 0.00 38 1016.4
20260503232228 20 288 8.0 14.5 0.00 0.00 0.00 38 1016.4
20260503232114 20 297 6.4 14.5 0.00 0.00 0.00 37 1016.5
20260503232045 20 265 6.4 14.5 0.00 0.00 0.00 37 1016.5
20260503231819 20 291 6.4 14.5 0.00 0.00 0.00 38 1016.6
20260503231710 20 306 6.4 16.1 0.00 0.00 0.00 37 1016.5
20260503231638 20 246 8.0 16.1 0.00 0.00 0.00 37 1016.6
20260503231546 20 278 8.0 17.7 0.00 0.00 0.00 36 1016.6
20260503231411 20 261 6.4 17.7 0.00 0.00 0.00 36 1016.5
20260503231318 20 279 6.4 17.7 0.00 0.00 0.00 36 1016.6
20260503231225 20 284 6.4 16.1 0.00 0.00 0.00 36 1016.6
20260503231116 20 309 9.7 24.1 0.00 0.00 0.00 36 1016.6
20260503231023 20 303 11.3 24.1 0.00 0.00 0.00 36 1016.6
20260503230911 20 286 11.3 24.1 0.00 0.00 0.00 36 1016.5
20260503230819 20 299 11.3 24.1 0.00 0.00 0.00 37 1016.5
20260503230725 20 301 11.3 24.1 0.00 0.00 0.00 37 1016.5
20260503230616 20 269 12.9 24.1 0.00 0.00 0.00 37 1016.6
20260503230547 20 293 12.9 24.1 0.00 0.00 0.00 37 1016.6
20260503230321 20 250 11.3 24.1 0.00 0.00 0.00 36 1016.5
20260503230210 20 257 8.0 14.5 0.00 0.00 0.00 36 1016.5
20260503230117 21 261 4.8 16.1 0.00 0.00 0.00 36 1016.5
20260503230028 21 259 6.4 16.1 0.00 0.00 0.00 36 1016.5
20260503225915 21 226 8.0 16.1 0.00 0.00 0.00 36 1016.6
20260503225843 21 249 6.4 16.1 0.00 0.00 0.00 36 1016.6
20260503225728 21 290 6.4 16.1 0.00 0.00 0.00 36 1016.7
20260503225615 21 192 6.4 16.1 0.00 0.00 0.00 37 1016.6
20260503225522 21 236 4.8 16.1 0.00 0.00 0.00 38 1016.6
20260503225413 21 277 8.0 17.7 0.00 0.00 0.00 37 1016.7
20260503225321 21 312 9.7 17.7 0.00 0.00 0.00 37 1016.7
20260503225248 21 329 9.7 17.7 0.00 0.00 0.00 36 1016.6
20260503225115 21 301 8.0 17.7 0.00 0.00 0.00 37 1016.7
20260503225045 21 300 8.0 17.7 0.00 0.00 0.00 37 1016.7
20260503224822 21 314 9.7 17.7 0.00 0.00 0.00 37 1016.7
20260503224729 21 273 11.3 17.7 0.00 0.00 0.00 37 1016.7
20260503224618 21 282 11.3 17.7 0.00 0.00 0.00 37 1016.6
20260503224523 21 271 12.9 17.7 0.00 0.00 0.00 38 1016.6
20260503224431 21 313 11.3 17.7 0.00 0.00 0.00 38 1016.6
20260503224317 21 312 9.7 14.5 0.00 0.00 0.00 38 1016.6
20260503224228 21 315 8.0 14.5 0.00 0.00 0.00 39 1016.6
20260503224116 21 261 6.4 14.5 0.00 0.00 0.00 39 1016.6
20260503224023 20 248 6.4 14.5 0.00 0.00 0.00 38 1016.6
20260503223910 21 229 8.0 14.5 0.00 0.00 0.00 37 1016.6
20260503223818 21 211 8.0 16.1 0.00 0.00 0.00 38 1016.6
20260503223725 20 269 8.0 16.1 0.00 0.00 0.00 38 1016.6
20260503223616 20 264 8.0 16.1 0.00 0.00 0.00 39 1016.6
20260503223547 20 331 8.0 16.1 0.00 0.00 0.00 39 1016.6
20260503223320 20 255 8.0 16.1 0.00 0.00 0.00 39 1016.7
20260503223227 20 289 6.4 16.1 0.00 0.00 0.00 39 1016.8
20260503223117 20 299 9.7 16.1 0.00 0.00 0.00 39 1016.6
20260503223024 20 242 8.0 16.1 0.00 0.00 0.00 40 1016.6
20260503222911 20 268 4.8 14.5 0.00 0.00 0.00 40 1016.6
20260503222820 20 322 6.4 14.5 0.00 0.00 0.00 40 1016.6
20260503222727 20 323 8.0 14.5 0.00 0.00 0.00 39 1016.6